Location: Santa Cristina
(46.5667°N, 11.7167°E)
Time: 18:27:48
(UTC+00:00)

Gbstr 26 Del rocket - Pass Details

Date: 21 April 2021
Orbit: 493 x 1263 km, 51.8° (Epoch: 11 May)

Event Time Altitude Azimuth Distance (km) Brightness Sun altitude
Exits shadow 01:46:46 28° 275° (W) 1,615 4.8 -22.0°
Maximum altitude 01:49:54 58° 344° (NNW) 943 4.0 -21.7°
Drops below altitude 10° 01:54:52 10° 64° (ENE) 2,168 6.8 -21.1°
Sets 01:57:03 0° 69° (ENE) 2,982 7.7 -20.8°
